TimeEST,TemperatureF,Dew PointF,Humidity,Sea Level PressureIn,VisibilityMPH,Wind Direction,Wind SpeedMPH,Gust SpeedMPH,PrecipitationIn,Events,Conditions,WindDirDegrees,DateUTC
12:54 AM,28.0,3.0,34,30.26,10.0,NW,8.1,-,N/A,,Clear,310,2013-02-18 05:54:00
1:54 AM,28.0,3.9,36,30.29,10.0,WNW,6.9,-,N/A,,Clear,300,2013-02-18 06:54:00
2:54 AM,28.0,3.9,36,30.30,10.0,WNW,10.4,-,N/A,,Clear,300,2013-02-18 07:54:00
3:54 AM,28.0,5.0,38,30.30,10.0,NW,8.1,-,N/A,,Clear,310,2013-02-18 08:54:00
4:54 AM,27.0,7.0,43,30.32,10.0,Calm,Calm,-,N/A,,Clear,0,2013-02-18 09:54:00
5:54 AM,25.0,9.0,51,30.35,10.0,West,3.5,-,N/A,,Clear,260,2013-02-18 10:54:00
6:54 AM,21.0,12.0,68,30.37,10.0,Calm,Calm,-,N/A,,Clear,0,2013-02-18 11:54:00
7:54 AM,30.0,10.0,43,30.40,10.0,WNW,5.8,-,N/A,,Clear,300,2013-02-18 12:54:00
8:54 AM,34.0,6.1,31,30.41,10.0,NW,6.9,-,N/A,,Clear,320,2013-02-18 13:54:00
9:54 AM,37.0,6.1,28,30.41,10.0,NW,9.2,-,N/A,,Clear,310,2013-02-18 14:54:00
10:54 AM,37.0,7.0,29,30.41,10.0,West,8.1,18.4,N/A,,Clear,280,2013-02-18 15:54:00
11:54 AM,41.0,9.0,27,30.39,10.0,West,9.2,-,N/A,,Clear,270,2013-02-18 16:54:00
12:54 PM,43.0,5.0,21,30.37,10.0,NW,10.4,-,N/A,,Clear,310,2013-02-18 17:54:00
1:54 PM,43.0,7.0,23,30.35,10.0,Variable,5.8,-,N/A,,Clear,0,2013-02-18 18:54:00
2:54 PM,45.0,7.0,21,30.32,10.0,SSW,5.8,-,N/A,,Clear,210,2013-02-18 19:54:00
3:54 PM,46.0,8.1,21,30.31,10.0,SW,6.9,-,N/A,,Clear,220,2013-02-18 20:54:00
4:54 PM,46.0,9.0,22,30.30,10.0,SSW,8.1,-,N/A,,Clear,200,2013-02-18 21:54:00
5:54 PM,42.1,15.1,34,30.30,10.0,SSW,6.9,-,N/A,,Clear,200,2013-02-18 22:54:00
6:54 PM,41.0,15.1,35,30.31,10.0,SSW,6.9,-,N/A,,Clear,200,2013-02-18 23:54:00
7:54 PM,41.0,16.0,36,30.31,10.0,North,-9999.0,-,N/A,,Clear,0,2013-02-19 00:54:00
8:54 PM,42.1,18.0,38,30.30,10.0,SSW,10.4,-,N/A,,Clear,200,2013-02-19 01:54:00
9:54 PM,41.0,18.0,40,30.29,10.0,SSW,10.4,-,N/A,,Clear,200,2013-02-19 02:54:00
10:54 PM,41.0,19.0,41,30.27,10.0,SSW,9.2,-,N/A,,Clear,200,2013-02-19 03:54:00
11:54 PM,39.9,21.9,49,30.27,10.0,SSW,13.8,-,N/A,,Clear,210,2013-02-19 04:54:00